TIME,DELAY(SENSOR),PRES,OXYGEN,RAWTEMP,T(OPTODE),TCPHASE,FLUOR,BETA(BETA700),BETA(BETA412),BETA(BETA440),CDOM,C(CSC),ED(ED412.20),ED(ED444.00),ED(ED489.60),ED(ED554.30),LU(LU412.10),LU(LU443.90),LU(LU489.70),LU(LU554.70),COMP,TILTX,TILTY,CHECK
1345605716,5807,929.6199951171875000,34.7216186523437500,555.0939941406250000,4.6378440856933590,56.2757492065429700,55,101,100,78,82,15575,0,0,0,0,2147124251,2147770596,2147574610,2147569225,668,3,13,20899
1345609312,5810,984.0999755859375000,38.5057182312011700,561.9381103515625000,4.4258160591125490,55.7580604553222660,56,101,101,79,83,15575,0,0,0,0,2147121837,2147777526,2147570843,2147569234,811,3,12,23415
1345612912,5810,994.4799804687500000,39.6535606384277340,563.5512695312500000,4.3757839202880860,55.5979194641113300,55,99,101,78,82,15575,0,0,0,0,2147121892,2147768576,2147570834,2147571849,113,3,13,16995
1345616512,5809,1005.1099853515625000,37.1048202514648440,565.2780761718750000,4.3222007751464840,56.0031204223632800,55,98,101,78,83,15573,0,0,0,0,2147121782,2147771154,2147572233,2147567131,451,3,13,46128
1345620112,5812,1010.2899780273438000,36.8815193176269500,565.3447265625000000,4.3201351165771480,56.0427589416503900,55,99,100,78,82,15573,0,0,0,0,2147121380,2147776283,2147577170,2147568402,428,3,13,34297
1345623712,5812,1014.8900146484375000,36.7455406188964840,565.1314086914062000,4.3267540931701660,56.0602111816406250,55,99,102,78,82,15571,0,0,0,0,2147125586,2147772068,2147576219,2147569828,76,3,13,29717
1345627312,5809,1010.2000122070312000,37.6048011779785160,564.5736083984375000,4.3440651893615720,55.9226112365722660,55,100,100,78,82,15553,0,0,0,0,2147121920,2147774866,2147575460,2147572269,3290,3,13,35805
1345630912,5808,1009.6500244140625000,36.7986106872558600,565.3045043945312000,4.3213829994201660,56.0507011413574200,55,100,102,77,83,15547,0,0,0,0,2147122724,2147773878,2147577609,2147569737,3293,3,13,51314
1345634512,5810,1009.9500122070312000,37.8967018127441400,566.3120117187500000,4.2901101112365720,55.8968009948730500,55,101,102,77,83,15547,0,0,0,0,2147124123,2147775808,2147573897,2147569627,125,3,13,28918
1345638112,5807,1007.6400146484375000,37.4743118286132800,566.3054199218750000,4.2903141975402830,55.9586410522460940,55,100,101,79,82,15543,0,0,0,0,2147121938,2147770313,2147573056,2147571026,432,3,13,51578
1345641712,5807,1013.4799804687500000,37.8963012695312500,566.0894775390625000,4.2970161437988280,55.8964805603027340,54,98,100,78,82,15547,0,0,0,0,2147125970,2147772205,2147574326,2147573924,236,3,13,22148
1345645312,5809,1014.2100219726562000,37.8915901184082000,565.9172973632812000,4.3023619651794430,55.8921699523925800,55,98,100,78,82,15548,0,0,0,0,2147124726,2147776283,2147573083,2147571245,150,3,13,49343
1345648912,5811,1014.9699707031250000,38.2109985351562500,565.5933837890625000,4.3124179840087890,55.8353309631347660,55,99,102,78,82,15546,0,0,0,0,2147122221,2147776073,2147576475,2147569691,98,3,13,23133
1345652512,5812,1016.2999877929688000,37.4002914428710940,566.2888793945312000,4.2908267974853520,55.9729194641113300,54,99,101,77,82,15546,0,0,0,0,2147123702,2147774244,2147572763,2147570212,83,3,13,1841
1345656112,5809,1014.0100097656250000,37.4919204711914060,566.7944946289062000,4.2751288414001465,55.9637718200683600,56,99,100,77,83,15548,0,0,0,0,2147123995,2147775954,2147573412,2147569334,150,3,13,51429
1345659712,5809,1017.4899902343750000,38.6315689086914060,567.5144042968750000,4.2527770996093750,55.7908515930175800,54,105,101,78,84,15547,0,0,0,0,2147125193,2147773430,2147576146,2147569216,212,3,13,17081
1345663312,5811,1011.5200195312500000,38.0655097961425800,567.9329833984375000,4.2397751808166500,55.8853492736816400,54,98,102,80,83,15544,0,0,0,0,2147125540,2147772790,2147578907,2147570642,331,3,13,23908
1345666912,5811,1023.2199707031250000,39.0550918579101560,566.5128784179688000,4.2838730812072750,55.7210998535156250,55,99,102,79,83,15546,0,0,0,0,2147123446,2147771254,2147576457,2147571821,3103,3,13,62621
1345670512,5812,1019.0499877929688000,38.3111190795898440,566.3060302734375000,4.2902970314025880,55.8285903930664060,56,99,100,79,83,15546,0,0,0,0,2147121618,2147770825,2147572973,2147567579,3406,3,13,59721
1345674112,5809,1014.4000244140625000,38.0424804687500000,566.5250854492188000,4.2834949493408200,55.8724708557128900,55,97,101,79,83,15545,0,0,0,0,2147119926,2147769097,2147575168,2147571072,404,3,13,64830
1345677712,5808,1026.1600341796875000,38.6199607849121100,566.0673217773438000,4.2977051734924320,55.7794990539550800,55,99,101,78,83,15542,0,0,0,0,2147123776,2147769280,2147576338,2147567076,136,3,13,61294
1345681312,5811,1024.9399414062500000,38.1050415039062500,565.5761718750000000,4.3129501342773440,55.8595199584960940,55,99,99,77,82,15545,0,0,0,0,2147123355,2147771382,2147578230,2147566784,16,3,13,42716
1345684912,5809,1022.4099731445312000,37.2372207641601560,565.8596191406250000,4.3041529655456540,55.9940299987793000,55,97,101,78,83,15542,0,0,0,0,2147124086,2147774107,2147577225,2147567936,3552,3,13,12059
1345688512,5812,1024.7199707031250000,38.0251007080078100,565.3930053710938000,4.3186359405517580,55.8619003295898440,55,99,102,77,83,15543,0,0,0,0,2147124443,2147773632,2147574016,2147569499,3369,3,13,35996
1345692112,5812,1027.8499755859375000,38.5010681152343750,565.5910034179688000,4.3124899864196780,55.7933197021484400,54,98,101,77,82,15542,0,0,0,0,2147124653,2147772882,2147571584,2147571437,3492,3,13,53370
1345695712,5809,1031.5600585937500000,38.4033699035644500,565.1165771484375000,4.3272151947021480,55.8001785278320300,55,98,100,78,83,15541,0,0,0,0,2147122267,2147772388,2147574637,2147566281,209,3,13,26071
1345699312,5811,1026.7299804687500000,37.6827392578125000,564.5394897460938000,4.3451228141784670,55.9061317443847660,55,101,101,80,83,15539,0,0,0,0,2147125385,2147778989,2147576310,2147566665,2,3,12,50352
1345702912,5809,1023.4699707031250000,37.9376296997070300,566.3571166992188000,4.2887120246887210,55.8877983093261700,55,101,100,77,84,15540,0,0,0,0,2147121536,2147771483,2147574765,2147570477,397,3,13,3941
1345706512,5810,1023.9500122070312000,38.0578918457031250,566.6179809570312000,4.2806091308593750,55.8713302612304700,54,99,102,77,82,15538,0,0,0,0,2147123785,2147777435,2147576246,2147570148,3574,3,13,56772
1345710112,5807,1022.0499877929688000,38.3756713867187500,566.6964111328125000,4.2781767845153810,55.8261795043945300,54,99,101,78,83,15541,0,0,0,0,2147126747,2147775122,2147572726,2147573028,190,3,13,62603
1345713712,5812,1023.6500244140625000,37.6652984619140600,566.8881835937500000,4.2722210884094240,55.9346504211425800,56,100,101,79,83,15536,0,0,0,0,2147120000,2147776137,2147576822,2147570450,3530,3,13,50548
1345717312,5808,1020.3400268554688000,37.1549301147460940,567.3682250976562000,4.2573180198669430,56.0209999084472660,56,97,104,77,83,15540,0,0,0,0,2147123008,2147779821,2147572864,2147570368,218,3,13,14507
1345720912,5809,1018.5599975585938000,37.6741981506347660,568.0684814453125000,4.2355690002441410,55.9493713378906250,55,99,102,77,84,15539,0,0,0,0,2147120886,2147773522,2147576164,2147570203,150,3,13,43765
1345724512,5809,1023.6400146484375000,37.3895988464355500,568.8065795898438000,4.2126407623291020,55.9963493347168000,55,98,101,79,83,15541,0,0,0,0,2147124653,2147768804,2147579291,2147568585,3509,3,13,62506
1345728112,5809,1025.9000244140625000,38.0990905761718750,567.5300292968750000,4.2522912025451660,55.8732109069824200,56,100,102,78,83,15541,0,0,0,0,2147122294,2147775634,2147571940,2147569709,451,3,13,51810
1345731712,5807,1028.5899658203125000,38.0673294067382800,566.3585815429688000,4.2886638641357420,55.8665199279785160,55,99,100,78,83,15540,0,0,0,0,2147124845,2147769453,2147573988,2147569700,212,3,13,36277
1345735312,5809,1029.2399902343750000,37.4099693298339840,566.2338256835938000,4.2925381660461430,55.9715309143066400,55,98,101,79,83,15526,0,0,0,0,2147122075,2147771638,2147575387,2147569993,3527,3,13,6381
1345738912,5808,1028.3599853515625000,37.6698303222656250,566.2188720703125000,4.2930011749267580,55.9275817871093750,55,99,101,78,82,15536,0,0,0,0,2147123419,2147777435,2147577892,2147570294,217,3,13,61631
1345742512,5808,1028.3699951171875000,37.3615684509277340,566.2156982421875000,4.2930998802185060,55.9759483337402340,55,99,101,77,83,15536,0,0,0,0,2147123364,2147774043,2147576795,2147568402,3449,3,13,59452
1345746112,5809,1028.2500000000000000,38.0435905456543000,566.2927246093750000,4.2907090187072750,55.8737907409668000,54,98,102,77,83,15539,0,0,0,0,2147121883,2147773028,2147580132,2147568100,125,3,13,18964
1345749712,5810,1028.3299560546875000,38.4877586364746100,566.8969726562500000,4.2719459533691410,55.8095588684082000,55,100,100,80,83,15536,0,0,0,0,2147124845,2147770075,2147574793,2147571986,3441,3,13,61884
1345749956,5810,1028.8100585937500000,38.6481590270996100,566.7180175781250000,4.2775077819824220,55.7836685180664060,56,99,102,79,82,15536,0,0,0,0,2147121536,2147772032,2147578514,2147571483,3342,3,13,5612
